CP7 (DAVE) (43615 NORAD) Tracking and Keplerian Element Data

This shows tracking and keplerian element data for the satellite.

Feedback or suggestion? Click here.




ElementValue
Catalog43615
NameCP7 (DAVE)
Epoch Orbit24385
Epoch Day13.46034242
Epoch Year2023
RAAN188.4786
Inclination92.9947
Eccentricity0.0005651
Argument of Perigee277.2984
Mean Anonmoly82.7653
Mean Motion15.84672554
Decay Rate0.00290576
L11 43615U 18070C 23013.46034242 .00290576 00000+0 12277-2 0 9998
L22 43615 92.9947 188.4786 0005651 277.2984 82.7653 15.84672554243859



Live tracking and technical data element details for CP7 (DAVE) (NORAD 43615). CP7 (DAVE) can be tracked NOW for your location showing map with azimuth and elevation plus other details from your city location.







IsCatalogInMostPopularTable: catalog: 43615, numindb: 701
Update: records affected: 1



GetName: 43615 CP7 (DAVE)

Hit Count: updated at: Mon, 17 Nov 2025 08:03:19 GMT